This is the latest recevied weather packets stored in our database for station/object LROD. If no packets are shown the sender has not sent any weather packets the latest 10 day(s).
| Time | Temp. | Humidity | Pressure | Rain* | Wind** | Luminosity | Snow |
|---|---|---|---|---|---|---|---|
| 1777875510 | 13.89° C | 48% | 1020 hPa | - | - | - | - |
| 1777874610 | 13.89° C | 48% | 1020 hPa | - | - | - | - |
| 1777873710 | 12.22° C | 54% | 1020 hPa | - | - | - | - |
| 1777872811 | 12.22° C | 54% | 1020 hPa | - | - | - | - |
| 1777871910 | 10° C | 62% | 1020 hPa | - | - | - | - |
| 1777871019 | 10° C | 62% | 1020 hPa | - | - | - | - |
| 1777870110 | 7.78° C | 66% | 1020 hPa | - | - | - | - |
| 1777869209 | 7.78° C | 66% | 1020 hPa | - | - | - | - |
| 1777868310 | 7.22° C | 71% | 1020 hPa | - | - | - | - |
| 1777867409 | 7.22° C | 71% | 1020 hPa | - | - | - | - |
| 1777866510 | 6.11° C | 76% | 1020 hPa | - | - | - | - |
| 1777865609 | 6.11° C | 76% | 1020 hPa | - | - | - | - |
| 1777864709 | 6.11° C | 76% | 1019 hPa | - | - | - | - |
| 1777863889 | 6.11° C | 76% | 1019 hPa | - | - | - | - |
| 1777862910 | 7.22° C | 71% | 1019 hPa | - | - | - | - |
| 1777862009 | 7.22° C | 71% | 1019 hPa | - | - | - | - |
| 1777861109 | 7.22° C | 71% | 1019 hPa | - | - | - | - |
| 1777860210 | 7.22° C | 71% | 1019 hPa | - | - | - | - |
| 1777859310 | 7.78° C | 66% | 1019 hPa | - | - | - | - |
| 1777858414 | 7.78° C | 66% | 1019 hPa | - | - | - | - |
| 1777857588 | 7.78° C | 66% | 1019 hPa | - | - | - | - |
| 1777856610 | 7.78° C | 66% | 1019 hPa | - | - | - | - |
| 1777855788 | 7.78° C | 66% | 1019 hPa | - | - | - | - |
| 1777854809 | 7.78° C | 66% | 1019 hPa | - | - | - | - |
| 1777853909 | 8.89° C | 62% | 1019 hPa | - | - | - | - |
* Rain since midnight (hover to see other rain measurements)
** Current wind speed in m/s (hover to see current wind gust speed)